Simultaneous Nadir Overpasses (SNOs) Predictions

Prediction of SNOs between AQUA and NOAA-19 Satellite Orbit:

Table of predicted SNOs for the next 14.0 days since TLE Epoch: 1/19/2013
Index Date (AQUA) Time (AQUA) Lat,Lon (AQUA) SZA (AQUA ) Date (NOAA-19) Time (NOAA-19) Lat,Lon (NOAA-19) SZA (NOAA-19 ) Distance(km) Time Diff (sec)
1 01/20/2013 16:25:35 -49.05, 127.93 110.38 01/20/2013 16:24:44 -48.94, 127.34 110.58 44.71 51
2 01/20/2013 17:27:54 79.68, 173.97 112.65 01/20/2013 17:29:07 79.17, 175.93 112.34 69.49 73
3 01/22/2013 21:09:39 -48.36, 57.15 111.54 01/22/2013 21:09:00 -48.24, 56.54 111.75 47.02 39
4 01/22/2013 21:58:30 46.08,-134.34 66.34 01/22/2013 21:59:30 45.93,-135.30 66.08 75.64 60
5 01/25/2013 02:16:53 -47.25, 178.58 37.15 01/25/2013 02:17:14 -47.13, 179.17 37.44 46.42 21
6 01/25/2013 02:42:46 46.09, 154.59 65.80 01/25/2013 02:43:58 45.93, 153.60 65.55 78.85 72
7 01/27/2013 06:12:00 46.03, -60.57 143.43 01/27/2013 06:10:57 45.85, -59.67 143.19 72.16 63
8 01/27/2013 07:00:58 -47.91, 107.78 38.09 01/27/2013 07:01:30 -47.83, 108.36 38.41 44.29 32
9 01/29/2013 10:56:16 46.06,-131.62 142.98 01/29/2013 10:55:24 45.89,-130.76 142.73 69.23 52
10 01/29/2013 11:45:02 -48.65, 37.01 39.13 01/29/2013 11:45:46 -48.53, 37.55 39.43 42.16 44
11 01/31/2013 15:22:50 67.54, -47.17 84.63 01/31/2013 15:21:37 67.33, -48.40 84.43 57.56 73
